Regional Weather Roundup
Issued by NWS

Home | Current Version | Previous Version | Graphics & Text | Print | Product List | Glossary Off
Versions: 1 2 3 4 5 6 7 8 9 10 11 12 13 14 15 16 17 18 19 20 21 22 23 24 25 26 27 28 29 30 31 32 33 34 35 36 37 38 39 40 41 42 43 44 45 46 47 48 49 50

000
ASUS43 KIND 310409
RWRIN

WEATHER ROUNDUP FOR INDIANA
NATIONAL WEATHER SERVICE INDIANAPOLIS IN
1100 PM EST FRI JAN 30 2015

NOTE: "FAIR" INDICATES FEW OR NO CLOUDS BELOW 12,000 FEET WITH NO
SIGNIFICANT WEATHER AND/OR OBSTRUCTIONS TO VISIBILITY.

* - STATION DOES NOT REPORT WEATHER SUCH AS PRECIPITATION OR FOG.

+ - STATION NOT QUALITY CONTROLLED BY THE NATIONAL WEATHER SERVICE.
    USE DATA WITH CAUTION...ESPECIALLY DEWPOINT AND RELATIVE
    HUMIDITY OBSERVATIONS.

INZ001>003-010>013-019-020-310500-
NORTHWEST INDIANA

CITY           SKY/WX    TMP DP  RH WIND       PRES   REMARKS
GARY /AIRPORT/ CLEAR     19  14  82 CALM      30.40F
KNOX *+        FAIR      18   7  62 S5        30.40F WCI  11
LA PORTE +     CLOUDY    18  14  85 CALM      30.39F
MICHIGAN CITY+ CLEAR     19  12  73 CALM      30.40F
MONTICELLO +   CLEAR     23  17  78 CALM      30.41F
RENSSELAER +   CLEAR     23  21  93 CALM      30.41S
VALPARAISO     CLEAR     18  14  84 S3        30.39F

$$

LMZ046-743>745-310500-
SOUTHERN LAKE MICHIGAN

STATION/POSITION TIME  TEMP WIND        PRES
                       AIR  DIR/SP/G
                 (UTC) (F)  (DEG/KT/KT) (MB)
MICHIGAN CITY    0400   23  150/  9/ 12   N/A

$$

INZ004-005-014>016-021>024-310500-
NORTH CENTRAL INDIANA

CITY           SKY/WX    TMP DP  RH WIND       PRES   REMARKS
GOSHEN         PTCLDY    19  14  81 S3        30.39F
LOGANSPORT +   CLEAR     21  19  93 CALM      30.42F
PERU/GRISSOM   PTCLDY    21  18  88 S2        30.40F
ROCHESTER +    CLEAR     21  19  93 CALM      30.42F
SOUTH BEND     PTCLDY    18  13  80 S5        30.39F WCI  11
WARSAW +       FAIR      19  16  86 CALM      30.40F

$$

INZ006>009-017-018-025>027-310500-
NORTHEAST INDIANA

CITY           SKY/WX    TMP DP  RH WIND       PRES   REMARKS
ANGOLA *+      CLEAR     14  10  85 CALM      30.38F
AUBURN +       PTCLDY    19  12  73 CALM      30.40F
FORT WAYNE     PTCLDY    19  14  81 S5        30.41F WCI  12
HUNTINGTON +   CLEAR     15  11  81 S3        30.40F

$$

INZ028-029-035-036-043>045-051>053-310500-
WEST CENTRAL INDIANA

CITY           SKY/WX    TMP DP  RH WIND       PRES   REMARKS
GREENCASTLE +  CLEAR     23  12  63 CALM      30.43S
LAFAYETTE      CLEAR     20  17  88 CALM      30.42F
TERRE HAUTE    CLEAR     24  18  77 CALM      30.44F

$$

INZ030>032-037>040-046>048-054>057-064-065-310500-
CENTRAL INDIANA

CITY           SKY/WX    TMP DP  RH WIND       PRES   REMARKS
CP ATTERBURY + CLEAR     19  18  93 CALM      30.44F
FRANKFORT +    CLEAR     19  17  90 CALM      30.42F
GREENWOOD *+   CLEAR     23  14  68 CALM      30.43S
INDIANAPOLIS   CLEAR     22  15  75 CALM      30.42F
-EAGLE CREEK   CLEAR     20  16  84 CALM      30.41F
KOKOMO *+      PTCLDY    21  18  86 CALM      30.41F
MARION +       CLEAR     21  18  88 CALM      30.42S
MT COMFORT *+  CLEAR     21  21 100 CALM      30.42F
SHELBYVILLE    CLEAR     24  19  81 S3        30.43S
ZIONSVILLE +   CLEAR     19  16  86 CALM      30.42F

$$

INZ033-034-041-042-049-050-058-059-310500-
EAST CENTRAL INDIANA

CITY           SKY/WX    TMP DP  RH WIND       PRES   REMARKS
MUNCIE         CLEAR     21  15  78 S3        30.41S

$$

INZ060-061-067>069-081>083-085>088-310500-
SOUTHWEST INDIANA

CITY           SKY/WX    TMP DP  RH WIND       PRES   REMARKS
EVANSVILLE     CLEAR     29  21  72 CALM      30.46F
HUNTINGBURG *+ CLEAR     25  16  68 CALM      30.45F
WASHINGTON +   CLEAR     26  15  62 CALM      30.45S

$$

INZ062-063-066-070>080-084-089>092-310500-
SOUTH CENTRAL AND SOUTHEAST INDIANA

CITY           SKY/WX    TMP DP  RH WIND       PRES   REMARKS
BLOOMINGTON    CLEAR     20  16  84 CALM      30.43S
NORTH VERNON + CLEAR     23  19  86 CALM      30.44S
SEYMOUR +      CLEAR     23  18  80 CALM      30.45S

$$




USA.gov is the U.S. government's official web portal to all federal, state and local government web resources and services.